When you browse on this site, cookies collect data to enhance your experience and personalize the content and advertising you see.
Visit our Privacy Policy to learn more. By continuing to use the site, you agree to this use of cookies and data.
  • în România
  • Lista ţărilor
  • Pe 7 zile
  • Temperatura apei
  • Hartă satelitară
  • Meteo pe hartă
  • Widget-uri
  • user-avatar
    Intrare

    Meteo pe oră la Álftanes

    Astăzi, 26 Martie, Marţi

    Timp Temperatura Precipitaţii Vânt Presiune Umiditate
    00:00 +6°C° 0 mm 1 m/s 773 mmHg 90%
    01:00 +5°C° 0 mm 1 m/s 773 mmHg 92%
    02:00 +5°C° 0 mm 1 m/s 773 mmHg 93%
    03:00 +4°C° 0 mm 1 m/s 773 mmHg 93%
    04:00 +3°C° 0 mm 2 m/s 772 mmHg 94%
    05:00 +3°C° 0 mm 2 m/s 772 mmHg 94%
    06:00 +4°C° 0 mm 2 m/s 772 mmHg 90%
    07:00 +6°C° 0 mm 2 m/s 772 mmHg 86%
    08:00 +7°C° 0 mm 2 m/s 772 mmHg 82%
    09:00 +8°C° 0 mm 3 m/s 772 mmHg 79%
    10:00 +10°C° 0 mm 3 m/s 772 mmHg 76%
    11:00 +11°C° 0 mm 3 m/s 772 mmHg 73%
    12:00 +11°C° 0 mm 3 m/s 772 mmHg 73%
    13:00 +10°C° 0 mm 3 m/s 772 mmHg 74%
    14:00 +10°C° 0 mm 3 m/s 772 mmHg 74%
    15:00 +10°C° 0 mm 3 m/s 772 mmHg 76%
    16:00 +10°C° 0 mm 3 m/s 772 mmHg 77%
    17:00 +9°C° 0 mm 2 m/s 772 mmHg 79%
    18:00 +8°C° 0 mm 2 m/s 772 mmHg 83%
    19:00 +6°C° 0 mm 2 m/s 772 mmHg 88%
    20:00 +5°C° 0 mm 2 m/s 773 mmHg 93%
    21:00 +5°C° 0 mm 2 m/s 773 mmHg 94%
    22:00 +4°C° 0 mm 2 m/s 773 mmHg 95%
    23:00 +5°C° 0 mm 1 m/s 773 mmHg 96%

    Mâine, 27 Martie, Miercuri

    Timp Temperatura Precipitaţii Vânt Presiune Umiditate
    00:00 +4°C° 0 mm 2 m/s 773 mmHg 96%
    01:00 +4°C° 0 mm 2 m/s 773 mmHg 96%
    02:00 +4°C° 0 mm 2 m/s 773 mmHg 96%
    03:00 +4°C° 0 mm 2 m/s 773 mmHg 96%
    04:00 +3°C° 0 mm 2 m/s 773 mmHg 97%
    05:00 +3°C° 0 mm 2 m/s 773 mmHg 97%
    06:00 +5°C° 0 mm 2 m/s 773 mmHg 93%
    07:00 +6°C° 0 mm 2 m/s 773 mmHg 90%
    08:00 +8°C° 0 mm 2 m/s 773 mmHg 86%
    09:00 +9°C° 0 mm 3 m/s 773 mmHg 81%
    10:00 +10°C° 0 mm 3 m/s 774 mmHg 76%
    11:00 +12°C° 0 mm 3 m/s 774 mmHg 71%
    12:00 +12°C° 0 mm 3 m/s 774 mmHg 71%
    13:00 +12°C° 0 mm 3 m/s 774 mmHg 71%
    14:00 +13°C° 0 mm 3 m/s 774 mmHg 71%
    15:00 +12°C° 0 mm 3 m/s 774 mmHg 75%
    16:00 +12°C° 0 mm 2 m/s 774 mmHg 79%
    17:00 +10°C° 0 mm 2 m/s 774 mmHg 83%
    18:00 +9°C° 0 mm 2 m/s 774 mmHg 87%
    19:00 +7°C° 0 mm 2 m/s 774 mmHg 91%
    20:00 +6°C° 0 mm 2 m/s 774 mmHg 95%
    21:00 +5°C° 0 mm 2 m/s 775 mmHg 95%
    22:00 +5°C° 0 mm 2 m/s 775 mmHg 96%
    23:00 +4°C° 0 mm 2 m/s 775 mmHg 96%

    Poimâine, 28 Martie, Joi

    Timp Temperatura Precipitaţii Vânt Presiune Umiditate
    00:00 +4°C° 0 mm 2 m/s 775 mmHg 97%
    01:00 +5°C° 0 mm 1 m/s 775 mmHg 97%
    02:00 +5°C° 0 mm 1 m/s 774 mmHg 97%
    03:00 +3°C° 0 mm 2 m/s 774 mmHg 97%
    04:00 +3°C° 0 mm 2 m/s 774 mmHg 98%
    05:00 +3°C° 0 mm 2 m/s 774 mmHg 98%
    06:00 +5°C° 0 mm 2 m/s 774 mmHg 95%
    07:00 +6°C° 0 mm 2 m/s 775 mmHg 92%
    08:00 +8°C° 0 mm 2 m/s 775 mmHg 88%
    09:00 +9°C° 0 mm 2 m/s 774 mmHg 80%
    10:00 +12°C° 0 mm 2 m/s 774 mmHg 72%
    11:00 +13°C° 0 mm 3 m/s 774 mmHg 64%
    12:00 +14°C° 0 mm 3 m/s 774 mmHg 63%
    13:00 +14°C° 0 mm 3 m/s 773 mmHg 61%
    14:00 +16°C° 0 mm 3 m/s 773 mmHg 59%
    15:00 +14°C° 0 mm 3 m/s 772 mmHg 65%
    16:00 +14°C° 0 mm 2 m/s 772 mmHg 71%
    17:00 +13°C° 0 mm 2 m/s 771 mmHg 76%
    18:00 +12°C° 0 mm 2 m/s 771 mmHg 82%
    19:00 +9°C° 0 mm 2 m/s 772 mmHg 87%
    20:00 +7°C° 0 mm 2 m/s 772 mmHg 92%
    21:00 +6°C° 0 mm 2 m/s 771 mmHg 93%
    22:00 +6°C° 0 mm 2 m/s 771 mmHg 93%
    23:00 +5°C° 0 mm 2 m/s 771 mmHg 94%

    29 Martie, Vineri

    Timp Temperatura Precipitaţii Vânt Presiune Umiditate
    00:00 +3°C° 0 mm 3 m/s 770 mmHg 92%
    01:00 +3°C° 0 mm 3 m/s 770 mmHg 91%
    02:00 +2°C° 0 mm 3 m/s 769 mmHg 90%
    03:00 +2°C° 0 mm 3 m/s 769 mmHg 91%
    04:00 +2°C° 0 mm 3 m/s 769 mmHg 92%
    05:00 +2°C° 0 mm 3 m/s 769 mmHg 92%
    06:00 +4°C° 0 mm 3 m/s 769 mmHg 87%
    07:00 +7°C° 0 mm 3 m/s 769 mmHg 82%
    08:00 +8°C° 0 mm 4 m/s 769 mmHg 77%
    09:00 +10°C° 0 mm 4 m/s 769 mmHg 73%
    10:00 +12°C° 0 mm 4 m/s 768 mmHg 69%
    11:00 +14°C° 0 mm 4 m/s 768 mmHg 64%
    12:00 +14°C° 0 mm 4 m/s 768 mmHg 64%
    13:00 +15°C° 0 mm 4 m/s 767 mmHg 65%
    14:00 +15°C° 0 mm 4 m/s 767 mmHg 65%
    15:00 +14°C° 0 mm 3 m/s 767 mmHg 70%
    16:00 +13°C° 0 mm 3 m/s 766 mmHg 74%
    17:00 +14°C° 0 mm 2 m/s 766 mmHg 79%
    18:00 +12°C° 0 mm 2 m/s 766 mmHg 83%
    19:00 +10°C° 0 mm 2 m/s 766 mmHg 86%
    20:00 +9°C° 0 mm 2 m/s 767 mmHg 90%
    21:00 +9°C° 0 mm 1 m/s 766 mmHg 91%
    22:00 +8°C° 0 mm 1 m/s 766 mmHg 93%
    23:00 +7°C° 0 mm 1 m/s 766 mmHg 95%

    30 Martie, Sâmbătă

    Timp Temperatura Precipitaţii Vânt Presiune Umiditate
    00:00 +7°C° 0 mm 1 m/s 766 mmHg 96%
    01:00 +7°C° 0 mm 1 m/s 766 mmHg 96%
    02:00 +6°C° 0 mm 1 m/s 766 mmHg 97%
    03:00 +7°C° 0 mm 1 m/s 766 mmHg 96%
    04:00 +7°C° 0 mm 1 m/s 766 mmHg 95%
    05:00 +7°C° 0 mm 1 m/s 766 mmHg 95%
    06:00 +8°C° 0 mm 1 m/s 766 mmHg 92%
    07:00 +8°C° 0 mm 2 m/s 766 mmHg 89%
    08:00 +9°C° 0 mm 2 m/s 766 mmHg 86%
    09:00 +9°C° 0.1 mm 3 m/s 767 mmHg 86%
    10:00 +9°C° 0.1 mm 3 m/s 767 mmHg 86%
    11:00 +8°C° 0.1 mm 4 m/s 767 mmHg 85%
    12:00 +8°C° 0.1 mm 4 m/s 767 mmHg 83%
    13:00 +8°C° 0.1 mm 4 m/s 767 mmHg 80%
    14:00 +8°C° 0.1 mm 4 m/s 768 mmHg 78%
    15:00 +7°C° 0 mm 4 m/s 768 mmHg 76%
    16:00 +7°C° 0 mm 4 m/s 768 mmHg 73%
    17:00 +8°C° 0 mm 3 m/s 769 mmHg 71%
    18:00 +5°C° 0 mm 3 m/s 769 mmHg 73%
    19:00 +3°C° 0 mm 3 m/s 770 mmHg 76%
    20:00 +2°C° 0 mm 3 m/s 770 mmHg 78%
    21:00 +1°C° 0 mm 3 m/s 771 mmHg 81%
    22:00 0°C° 0 mm 3 m/s 771 mmHg 83%
    23:00 +1°C° 0 mm 2 m/s 771 mmHg 86%

    31 Martie, Duminică

    Timp Temperatura Precipitaţii Vânt Presiune Umiditate
    00:00 -1°C° 0 mm 2 m/s 771 mmHg 87%
    01:00 -1°C° 0 mm 2 m/s 771 mmHg 89%
    02:00 -2°C° 0 mm 2 m/s 771 mmHg 91%
    03:00 -2°C° 0 mm 2 m/s 771 mmHg 90%
    04:00 -2°C° 0 mm 2 m/s 772 mmHg 90%
    05:00 -2°C° 0 mm 2 m/s 772 mmHg 90%
    06:00 0°C° 0 mm 3 m/s 772 mmHg 83%
    07:00 +2°C° 0 mm 3 m/s 772 mmHg 76%
    08:00 +4°C° 0 mm 4 m/s 773 mmHg 69%
    09:00 +5°C° 0 mm 4 m/s 773 mmHg 66%
    10:00 +8°C° 0 mm 3 m/s 773 mmHg 63%
    11:00 +9°C° 0 mm 3 m/s 773 mmHg 59%
    12:00 +9°C° 0 mm 3 m/s 773 mmHg 59%
    13:00 +9°C° 0 mm 3 m/s 772 mmHg 58%
    14:00 +9°C° 0 mm 2 m/s 772 mmHg 58%
    15:00 +8°C° 0 mm 2 m/s 772 mmHg 61%
    16:00 +9°C° 0 mm 1 m/s 772 mmHg 64%
    17:00 +9°C° 0 mm 1 m/s 772 mmHg 67%
    18:00 +8°C° 0 mm 1 m/s 772 mmHg 68%
    19:00 +7°C° 0 mm 1 m/s 772 mmHg 68%
    20:00 +5°C° 0 mm 2 m/s 772 mmHg 69%
    21:00 +4°C° 0 mm 2 m/s 772 mmHg 74%
    22:00 +2°C° 0 mm 2 m/s 771 mmHg 80%
    23:00 +1°C° 0 mm 2 m/s 771 mmHg 85%
    Arată mai mult